Location: Brno
(49.2000°N, 16.6330°E)
Time: 09:57:33
(UTC+02:00)

ISS - Pass Details

Date: 24 May 2021
Orbit: 417 x 422 km, 51.6° (Epoch: 13 June)

Event Time Altitude Azimuth Distance (km) Brightness Sun altitude
Rises 22:59:55 0° 289° (WNW) 2,368 0.8 -15.7°
Reaches altitude 10° 23:02:01 10° 288° (WNW) 1,503 -0.3 -15.8°
Maximum altitude 23:05:23 78° 204° (SSW) 434 -3.9 -16.1°
Enters shadow 23:06:34 37° 122° (ESE) 669 -3.2 -16.2°
